STARLINK-1255, 45399

Orbit data source: Space-Track

STARLINK-1255, 45399 is a payload satellite owned by SpaceX/Seattle (US) in LEO that was launched on Wed, 18 Mar 2020 UTC via an FALCON 9 launch vehicle from the Air Force Eastern Test Range (AFETR). Payload-class satellites include a variety of spacecraft equipped with specific instruments for various scientific and technological missions. These include communications satellites like Starlink; space stations such as the ISS; scientific satellites like the Hubble; Earth observation satellites from companies like Planet Labs, Umbra, and HawkEye 360; GPS; miniature CubeSats for education and research; and military/defense satellites.

Loading next visibility...
Identifier
45399, 2020-019AR
Orbit
LEO
Country
Flag of USUS
Related business
Manufacturer
SpaceX/Seattle
Mission
Partially operational Commercial Communications
Bus & Motor
STARLINK, Unknown motor
Mass
260 kg wet, ~248 kg dry
Launch date (UTC)
2020-03-18 (6 years ago)
Launch vehicle
FALCON 9
Launch site
Air Force Eastern Test Range (AFETR)
Object type
Payload
Rocket body
Debris
Shape & HBR
Box + 1 Pan, 10.1 m
Radar Cross Section
13.562 m², Large (>1 m²)

Expand to show TLE details & history
Last TLE update: 18 hours ago

TLE from 18 hours ago
0 STARLINK-1255
1 45399U 20019AR  26132.78442803  .00069288  00000-0  76998-3 0  9997
2 45399  53.0360 151.5249 0006737  21.1144 339.0146 15.62262148340428
Epoch: 2026-05-12T18:49Z
TLE epoch observation values (Epoch: 2026-05-12T18:49:34.581Z)
Latitude
-0.00003°
Longitude
-1.42304°
Altitude
377.772 km
Speed
7.687 km/s
True Right ascension
10h 06m 05s
True Declination
0° 00' 00"
Sunlit
Object was in daylight at epoch
Visualization orbit readout
Latitude
Unknown
Longitude
Unknown
Altitude
Unknown
Speed
Unknown
Apparent Right ascension
Unknown
Apparent Declination
Unknown
Sunlit
N/A
Visualization observer readout
Local Sidereal Time
20:53:04
Azimuth
Unknown
Elevation
Unknown
Doppler factor
Unknown
Orbital elements
Apogee altitude
385.958 km
Perigee altitude
376.851 km
Semi-major axis
6,759.541 km
Eccentricity
0.00067
Inclination
53.036°
RAAN
151.5249°
Arg. of periapsis
21.1144°
True anomaly
338.98693°
Mean anomaly
339.0146°
Eccentric anomaly
339.00077°
Mean motion
3.90542 °/min
Orbital period
92.18 mins
BSTAR
0.00076998
Loading maneuver chart data...
Computing Atmospheric mass density...

Documentation

Showing up to 5 results
|